Weather History for Lexington, KY

Change the Weather History Date:

Friday, January 17, 2014

  Actual Average Record
Temperature  
Mean Temperature 25 °F 33 °F  
Max Temperature 34 °F 41 °F 67 °F (1952)
Min Temperature 16 °F 25 °F -13 °F (1982)
Degree Days  
Heating Degree Days 40 32  
Month to date heating degree days 577 544  
Since 1 July heating degree days 2335 2332  
Cooling Degree Days 0 0  
Month to date cooling degree days 0 0  
Year to date cooling degree days 0 0  
Moisture  
Dew Point 21 °F    
Average Humidity 79    
Maximum Humidity 96    
Minimum Humidity 61    
Precipitation  
Precipitation T in 0.10 in 1.58 in (1937)
Month to date precipitation 2.05 1.75  
Year to date precipitation 2.05 1.75  
Snow  
Snow 0.30 in 0.10 in 10.00 in (1994)
Month to date snowfall 2.0 2.0  
Since 1 July snowfall 4.0 4.8  
Snow Depth T in    
Sea Level Pressure  
Sea Level Pressure 29.92 in    
Wind  
Wind Speed 11 mph (WSW)    
Max Wind Speed 22 mph    
Max Gust Speed 29 mph    
Visibility 8 miles    
Events Snow    
T = Trace of Precipitation, MM = Missing Value Source: NWS Daily Summary

Daily Weather History Graph

Daily Weather History Graph

Search for Another Location

Airport:

Trip Planner

Search our weather history database for the weather conditions in past years. The results will help you decide how hot, cold, wet, or windy it might be!

Date:

Astronomy

Jan. 17, 2014 Rise Set
Actual Time 7:52 AM EST 5:44 PM EST
Civil Twilight 7:23 AM EST 6:13 PM EST
Nautical Twilight 6:51 AM EST 6:45 PM EST
Astronomical Twilight 6:20 AM EST 7:17 PM EST
Moon 7:28 PM EST (1/17) 8:22 AM EST (1/17)
Length of Visible Light 10h 49m
Length of Day
9h 52m
Full, 98% of the Moon is Illuminated
Jan 17
Full
Jan 24
Last Quarter
Jan 30
New
Feb 6
First Quarter
Feb 14
Full

Hourly Weather History & Observations

Time (EST) Temp. Windchill Dew Point Humidity Pressure Visibility Wind Dir Wind Speed Gust Speed Precip Events Conditions
12:54 AM 33.1 °F 28.7 °F 30.0 °F 89% 29.85 in 10.0 mi South 4.6 mph - 0.00 in   Overcast
1:54 AM 33.1 °F 28.7 °F 30.0 °F 89% 29.84 in 10.0 mi South 4.6 mph - 0.00 in   Overcast
2:54 AM 33.1 °F 26.1 °F 30.0 °F 89% 29.83 in 10.0 mi South 8.1 mph - N/A   Overcast
3:54 AM 30.9 °F 22.8 °F 28.9 °F 92% 29.82 in 10.0 mi South 9.2 mph - N/A   Partly Cloudy
4:09 AM 33.1 °F 24.4 °F 30.9 °F 92% 29.80 in 10.0 mi South 11.5 mph - N/A   Mostly Cloudy
4:54 AM 34.0 °F 25.5 °F 32.0 °F 92% 29.81 in 10.0 mi South 11.5 mph - N/A   Overcast
5:17 AM 33.1 °F 24.4 °F 30.9 °F 92% 29.78 in 9.0 mi South 11.5 mph - 0.00 in Snow Light Snow
5:35 AM 33.1 °F 24.9 °F 30.9 °F 92% 29.78 in 10.0 mi South 10.4 mph - 0.00 in   Mostly Cloudy
5:54 AM 33.1 °F 26.1 °F 30.9 °F 92% 29.80 in 10.0 mi South 8.1 mph - 0.00 in   Overcast
6:07 AM 32.0 °F 24.2 °F 30.0 °F 92% 29.78 in 10.0 mi South 9.2 mph - N/A   Mostly Cloudy
6:54 AM 33.1 °F 25.5 °F 30.9 °F 92% 29.78 in 10.0 mi South 9.2 mph - 0.00 in   Mostly Cloudy
7:27 AM 33.1 °F 24.9 °F 30.9 °F 92% 29.77 in 10.0 mi SSW 10.4 mph - N/A   Overcast
8:54 AM 34.0 °F 26.0 °F 30.9 °F 89% 29.82 in 10.0 mi WSW 10.4 mph - 0.00 in   Overcast
9:52 AM 33.8 °F 23.9 °F 28.4 °F 81% 29.83 in 8.0 mi West 15.0 mph - 0.00 in Snow Light Snow
9:54 AM 33.1 °F 22.6 °F 28.9 °F 85% 29.85 in 7.0 mi West 16.1 mph - 0.00 in Snow Light Snow
9:57 AM 33.1 °F 22.6 °F 28.9 °F 85% 29.83 in 7.0 mi West 16.1 mph - 0.00 in Snow Light Snow
10:20 AM 30.0 °F 18.3 °F 26.1 °F 85% 29.85 in 1.8 mi NW 17.3 mph 25.3 mph 0.00 in Snow Light Snow
10:43 AM 27.0 °F 13.9 °F 23.0 °F 85% 29.87 in 3.0 mi WNW 18.4 mph 27.6 mph 0.00 in Snow Light Snow
10:54 AM 26.1 °F 14.0 °F 21.0 °F 81% 29.90 in 9.0 mi WNW 15.0 mph 24.2 mph 0.00 in   Overcast
11:14 AM 26.1 °F 16.2 °F 21.0 °F 81% 29.89 in 1.8 mi WNW 10.4 mph - 0.00 in Snow Light Snow
11:34 AM 25.0 °F 13.6 °F 18.0 °F 75% 29.90 in 8.0 mi WNW 12.7 mph 24.2 mph 0.00 in Snow Light Snow
11:54 AM 24.1 °F 12.5 °F 19.0 °F 81% 29.94 in 2.5 mi West 12.7 mph 21.9 mph 0.00 in Snow Light Snow
12:14 PM 25.0 °F 13.1 °F 19.9 °F 81% 29.89 in 1.2 mi WNW 13.8 mph - 0.00 in Snow Light Snow
12:30 PM 25.0 °F 13.6 °F 19.0 °F 78% 29.90 in 3.0 mi West 12.7 mph - 0.00 in Snow Light Snow
12:54 PM 25.0 °F 11.3 °F 18.0 °F 75% 29.91 in 8.0 mi West 18.4 mph 25.3 mph 0.00 in Snow Light Snow
1:39 PM 23.0 °F 9.6 °F 17.1 °F 78% 29.90 in 1.8 mi WNW 16.1 mph 21.9 mph 0.00 in Snow Light Snow
1:54 PM 23.0 °F 10.6 °F 17.1 °F 78% 29.94 in 1.8 mi West 13.8 mph 24.2 mph 0.00 in Snow Light Snow
2:44 PM 21.9 °F 7.8 °F 14.0 °F 72% 29.93 in 9.0 mi West 17.3 mph 21.9 mph 0.00 in   Overcast
2:54 PM 21.9 °F 9.2 °F 15.1 °F 75% 29.97 in 4.0 mi West 13.8 mph - 0.00 in Snow Light Snow
3:14 PM 21.9 °F 6.9 °F 15.1 °F 75% 29.95 in 1.8 mi WSW 19.6 mph 25.3 mph 0.00 in Snow Light Snow
3:23 PM 21.9 °F 8.2 °F 14.0 °F 72% 29.96 in 4.0 mi West 16.1 mph - 0.00 in Snow Light Snow
3:54 PM 21.9 °F 8.2 °F 12.0 °F 66% 30.01 in 2.0 mi West 16.1 mph 24.2 mph 0.00 in Snow Light Snow
4:04 PM 21.0 °F 8.6 °F 14.0 °F 74% 29.99 in 6.0 mi West 12.7 mph - 0.00 in Snow Light Snow
4:54 PM 19.9 °F 6.7 °F 10.9 °F 68% 30.04 in 10.0 mi West 13.8 mph - 0.00 in   Overcast
5:54 PM 19.9 °F 7.3 °F 9.0 °F 62% 30.06 in 10.0 mi West 12.7 mph - N/A   Overcast
6:54 PM 19.0 °F 5.6 °F 10.0 °F 68% 30.08 in 10.0 mi WSW 13.8 mph - N/A   Overcast
7:54 PM 18.0 °F 4.2 °F 8.1 °F 65% 30.10 in 10.0 mi West 13.8 mph - 0.00 in   Overcast
8:54 PM 17.1 °F 3.6 °F 7.0 °F 65% 30.11 in 10.0 mi West 12.7 mph - N/A   Overcast
9:54 PM 17.1 °F 5.0 °F 8.1 °F 68% 30.12 in 10.0 mi WSW 10.4 mph - N/A   Overcast
10:03 PM 17.1 °F 6.6 °F 7.0 °F 65% 30.08 in 10.0 mi WSW 8.1 mph - N/A   Overcast
10:54 PM 16.0 °F 6.3 °F 7.0 °F 68% 30.13 in 10.0 mi WSW 6.9 mph - N/A   Overcast
11:54 PM 16.0 °F 7.4 °F 8.1 °F 71% 30.12 in 10.0 mi West 5.8 mph - N/A   Overcast